Location: Newark
(21.1200°N, 73.4000°E)
Time: 14:58:01
(UTC+00:00)

Explorer 11/Cluster Stage 4 - Pass Details

Date: 20 January 2020
Orbit: 467 x 1259 km, 28.8° (Epoch: 23 February)

Event Time Altitude Azimuth Distance (km) Brightness Sun altitude
Rises 11:07:18 0° 260° (W) 4,085 11.4 20.2°
Reaches altitude 10° 11:10:23 10° 264° (W) 3,042 10.9 19.6°
Maximum altitude 11:17:50 62° 343° (NNW) 1,125 7.6 18.2°
Drops below altitude 10° 11:23:54 10° 64° (ENE) 2,499 8.6 16.9°
Sets 11:26:14 0° 68° (ENE) 3,315 9.2 16.5°
